AO-07 1 07530U 74089B 21168.67503836 -.00000027 00000-0 11529-3 0 9990 2 07530 101.8537 143.1773 0012487 23.5168 151.5179 12.53649077131991 UO-11 1 14781U 84021B 21168.52911969 .00000112 00000-0 19763-4 0 9990 2 14781 97.5921 168.3668 0010016 82.7414 277.4939 14.83293406985944 LO-19 1 20442U 90005G 21168.48716659 .00000015 00000-0 22041-4 0 9999 2 20442 98.7414 123.9535 0012127 155.9184 204.2569 14.32988891640833 HUBBLE 1 20580U 90037B 21168.04043485 .00000565 00000-0 23234-4 0 9994 2 20580 28.4706 67.8108 0002806 61.6318 318.2979 15.09660758510984 MET-2/21 1 22782U 93055A 21168.51480097 .00000063 00000-0 43481-4 0 9998 2 22782 82.5489 303.8584 0021116 292.5301 139.1302 13.83836525403531 AO-27 1 22825U 93061C 21168.58836901 -.00000007 00000-0 15481-4 0 9997 2 22825 98.9168 186.2077 0009133 40.5083 319.6777 14.30117022446004 IO-26 1 22826U 93061D 21168.55874597 -.00000005 00000-0 15940-4 0 9996 2 22826 98.9111 186.0860 0009449 28.4968 331.6729 14.30456173446248 FO-29 1 24278U 96046B 21168.59777045 -.00000017 00000-0 16828-4 0 9998 2 24278 98.5670 236.5561 0350999 149.1489 213.0802 13.53104862226266 NOAA-15 1 25338U 98030A 21168.64710650 .00000074 00000-0 49310-4 0 9990 2 25338 98.6813 197.1704 0009182 281.4467 78.5681 14.26038052201277 GO-32 1 25397U 98043D 21168.40589449 -.00000004 00000-0 17746-4 0 9995 2 25397 98.7712 113.9578 0002415 85.1974 274.9480 14.23709958191487 ISS 1 25544U 98067A 21168.87490640 .00001211 00000-0 30151-4 0 9995 2 25544 51.6445 339.3221 0003457 102.3260 342.4446 15.48994679288707 NO-44 1 26931U 01043C 21168.59726448 -.00000019 00000-0 24486-4 0 9991 2 26931 67.0518 280.0652 0006431 261.1394 98.8979 14.30622020 29217 SO-50 1 27607U 02058C 21168.77492139 .00000021 00000-0 23459-4 0 9997 2 27607 64.5559 337.3628 0040607 20.9261 339.3492 14.75757565994767 CO-55 1 27844U 03031E 21168.61701817 .00000056 00000-0 44966-4 0 9995 2 27844 98.6792 176.8274 0011136 79.9613 280.2821 14.22314686932048 CO-57 1 27848U 03031J 21168.68062202 .00000048 00000-0 41422-4 0 9999 2 27848 98.6848 177.4545 0011033 91.5905 268.6536 14.21891072931873 RS-22 1 27939U 03042A 21168.85935962 .00000126 00000-0 31229-4 0 9994 2 27939 98.1424 305.9514 0011481 279.3715 80.6193 14.66991750947584 NOAA-18 1 28654U 05018A 21168.72933053 .00000066 00000-0 60067-4 0 9994 2 28654 98.9936 233.5950 0013139 281.9324 78.0374 14.12614696828573 CO-58 1 28895U 05043F 21168.63096057 .00000174 00000-0 42317-4 0 9991 2 28895 98.0591 301.8652 0016206 205.5159 154.5245 14.63921126834032 Falconsat-3 1 30776U 07006E 21168.23436076 .00004531 00000-0 10904-3 0 9995 2 30776 35.4340 101.6353 0003767 266.3795 93.6503 15.40778948793079 CO-65 1 32785U 08021C 21168.46673987 .00000299 00000-0 37565-4 0 9994 2 32785 97.6109 147.3087 0013233 10.5176 349.6316 14.88730625712175 AAUSAT2 1 32788U 08021F 21168.48925504 .00000370 00000-0 38271-4 0 9999 2 32788 97.5044 163.1447 0009928 270.9643 89.0441 14.95601081713961 DO-64 1 32789U 08021G 21168.54769411 .00001784 00000-0 11649-3 0 9999 2 32789 97.3754 203.9105 0013123 136.1105 224.1169 15.09009445716841 CO-66 1 32791U 08021J 21168.69766802 .00000598 00000-0 65204-4 0 9998 2 32791 97.5707 153.4429 0012394 332.2837 27.7720 14.91418452712895 RS-30 1 32953U 08025A 21168.71075677 .00000028 00000-0 12906-3 0 9996 2 32953 82.5054 50.7714 0019730 339.5339 20.4950 12.43102133593015 PRISM 1 33493U 09002B 21168.46205693 .00000477 00000-0 46305-4 0 9996 2 33493 98.1897 131.0042 0013343 290.9053 69.0739 14.97686016674323 NOAA-19 1 33591U 09005A 21168.76342852 .00000086 00000-0 71945-4 0 9994 2 33591 99.1827 189.4770 0014791 129.1777 231.0710 14.12475595636968 SRMSAT 1 37841U 11058D 21168.56904390 .00000296 00000-0 17526-4 0 9994 2 37841 19.9731 300.3824 0011842 295.6992 149.8721 14.10697358499685 HRBE 1 37855U 11061F 21168.48963376 .00002734 00000-0 13741-3 0 9996 2 37855 101.7121 91.9058 0167030 70.5741 291.3438 15.07684377526186 RS-40 1 38735U 12041C 21168.43304222 -.00000009 00000-0 -13631-3 0 9990 2 38735 82.4745 133.1069 0018468 85.6321 274.6868 12.42582579403185 ZACUBE-1 1 39417U 13066B 21168.51762749 .00000265 00000-0 39272-4 0 9999 2 39417 97.5926 152.8415 0059090 159.4625 200.8983 14.81522520409086 GOMX-1 1 39430U 13066Q 21168.80679080 .00000256 00000-0 54605-4 0 9998 2 39430 97.8144 91.8572 0151731 113.5032 248.2210 14.59616768403097 LO-74 1 39440U 13066AA 21168.45206421 .00000241 00000-0 40426-4 0 9995 2 39440 97.6760 137.7968 0078451 234.9731 124.4101 14.76251512406425 AO-73 1 39444U 13066AE 21168.50176785 .00000336 00000-0 46998-4 0 9999 2 39444 97.5830 155.1908 0058388 149.9297 210.5291 14.82431256407445 SPROUT 1 39770U 14029E 21168.74555552 .00001157 00000-0 13076-3 0 9992 2 39770 97.9161 280.0175 0008241 199.0199 161.0786 14.88440849383381 DTUSAT-2 1 40030U 14033W 21168.55623427 .00000352 00000-0 43361-4 0 9991 2 40030 97.9163 95.8021 0011952 167.5475 192.6039 14.88999400379339 EO-80 1 40032U 14033Y 21168.58664227 .00000318 00000-0 39807-4 0 9991 2 40032 97.9170 95.8392 0011874 168.1761 191.9736 14.88957024379318 HODOYOSHI-1 1 40299U 14070B 21168.83128688 .00000959 00000-0 41490-4 0 9993 2 40299 97.2855 242.4007 0012566 355.0786 114.8533 15.24737748367475 FIREBIRD FU3 1 40377U 15003B 21168.48683506 .00005225 00000-0 19051-3 0 9991 2 40377 99.0999 309.7242 0117851 172.3274 187.9796 15.22425534352790 FIREBIRD FU4 1 40378U 15003C 21168.66040937 .00005292 00000-0 19251-3 0 9993 2 40378 99.1003 310.0748 0117948 171.5652 188.7599 15.22478212352838 GRIFEX 1 40379U 15003D 21168.66643656 .00002906 00000-0 11973-3 0 9993 2 40379 99.0956 299.4017 0127996 204.1088 155.4117 15.18055754352221 NO-84 1 40654U 15025D 21167.18942607 .00041843 00000-0 28608-3 0 499 2 40654 54.9796 47.7047 0079901 63.6780 297.2495 15.70038284 6851 XW-2A 1 40903U 15049E 21168.82915938 .00003582 00000-0 76786-4 0 9994 2 40903 97.2350 223.3090 0012836 21.9418 106.2588 15.45334163322853 XW-2C 1 40906U 15049H 21168.83021012 .00000742 00000-0 41187-4 0 9991 2 40906 97.4851 171.1789 0014291 179.3070 302.4446 15.16750324317629 XW-2D 1 40907U 15049J 21168.82470230 .00000950 00000-0 51286-4 0 9993 2 40907 97.4845 170.9673 0013769 175.3204 307.9768 15.17073087317651 LILACSAT-2 1 40908U 15049K 21168.81828882 .00000475 00000-0 29405-4 0 9993 2 40908 97.5038 168.8052 0015190 192.6457 289.7343 15.14445570317288 XW-2E 1 40909U 15049L 21168.84378681 .00001535 00000-0 75307-4 0 9994 2 40909 97.4660 174.9970 0013515 161.4918 320.6239 15.19551366317994 XW-2F 1 40910U 15049M 21168.84724688 .00001525 00000-0 75900-4 0 9996 2 40910 97.4716 174.0784 0014683 162.1056 319.9737 15.19052264317784 XW-2B 1 40911U 15049N 21168.82732846 .00000886 00000-0 48206-4 0 9998 2 40911 97.4842 171.6511 0013520 176.2940 306.0061 15.16989251317546 DCBB 1 40912U 15049P 21168.84403159 .00001844 00000-0 84621-4 0 9999 2 40912 97.4445 178.4463 0015521 135.9023 346.6614 15.21592204318251 TW-1A 1 40928U 15051D 21168.86223584 .00005459 00000-0 11399-3 0 9990 2 40928 97.0764 193.7551 0007507 297.8959 186.7910 15.45896728321752 IO-86 1 40931U 15052B 21167.66554875 .00000757 00000-0 16221-4 0 9998 2 40931 6.0007 258.0214 0013836 29.8184 330.2896 14.76679390309181 ATHENOXAT-1 1 41168U 15077C 21168.58972211 .00002712 00000-0 10223-3 0 9996 2 41168 14.9866 260.0032 0010592 175.6935 221.4086 15.15716675304804 ChubuSat-2 1 41338U 16012B 21168.46753958 .00000347 00000-0 20050-4 0 9999 2 41338 31.0014 185.8140 0013612 133.8117 226.3646 15.00534974292600 ChubuSat-3 1 41339U 16012C 21168.42404582 .00000323 00000-0 18132-4 0 9994 2 41339 31.0103 183.3179 0013180 140.8222 219.3370 15.00681848292597 Horyu-4 1 41340U 16012D 21168.35305140 .00000530 00000-0 32953-4 0 9995 2 41340 31.0035 167.3424 0013781 171.9307 188.1552 15.01898800292778 e-st@r-II 1 41459U 16025D 21168.81390255 .00002220 00000-0 11039-3 0 9991 2 41459 98.1430 305.0331 0161355 61.7041 300.0352 15.08132935282478 AAUSAT4 1 41460U 16025E 21168.64348291 .00003454 00000-0 16201-3 0 9993 2 41460 98.1436 308.7307 0147612 46.2213 315.1120 15.11233410282742 LO-87 1 41557U 16033B 21168.79442491 .00002149 00000-0 77778-4 0 9999 2 41557 97.3935 262.7280 0011538 228.6126 249.0817 15.29466772281586 NuSat2 1 41558U 16033C 21168.79504399 .00002108 00000-0 71667-4 0 9992 2 41558 97.4047 266.5496 0010742 220.7350 258.4675 15.31556639281773 Lapan A3 1 41603U 16040E 21168.79276635 .00000299 00000-0 16880-4 0 9995 2 41603 97.2552 215.7129 0013688 9.3771 101.9794 15.20040330276639 Pratham 1 41783U 16059A 21168.39633950 .00000072 00000-0 22943-4 0 9993 2 41783 97.9639 218.5050 0032236 245.0987 114.6864 14.63144046252248 TY-1 1 41844U 16066D 21168.85652841 .00001355 00000-0 55704-4 0 9996 2 41844 97.3976 179.0689 0015840 131.4088 349.6291 15.25792641255960 CAS-2T 1 41847U 16066G 21168.12709622 .00000139 00000-0 31833-4 0 9995 2 41847 98.6010 227.2572 0364471 221.2304 136.0830 14.38196722241838 EO-88 1 42017U 17008BX 21168.43005085 .00002873 00000-0 10715-3 0 9990 2 42017 97.3154 236.0301 0007745 106.1066 254.1027 15.28198225241251 CAS-4B 1 42759U 17034B 21168.77250117 .00000344 00000-0 33975-4 0 9992 2 42759 43.0159 179.3283 0007906 174.6445 354.3828 15.10230268221193 CAS-4A 1 42761U 17034D 21168.76348911 .00000374 00000-0 35744-4 0 9993 2 42761 43.0159 178.4320 0008304 175.7000 353.4874 15.10317411221197 NIUSat 1 42766U 17036B 21168.57801477 .00001623 00000-0 72258-4 0 9999 2 42766 97.2497 214.5480 0015349 168.7010 191.4575 15.22744830221232 Aalto 1 1 42775U 17036L 21168.68224005 .00001282 00000-0 57799-4 0 9991 2 42775 97.2466 214.8984 0013879 166.9066 193.2534 15.22691948221233 URSA MAIOR 1 42776U 17036M 21168.55325717 .00001453 00000-0 64620-4 0 9991 2 42776 97.2481 215.2398 0013663 166.6596 193.5005 15.22955304221236 Max Valier Sat 1 42778U 17036P 21168.69795805 .00001580 00000-0 68717-4 0 9999 2 42778 97.2546 217.3009 0012250 167.0194 193.1361 15.23620581221320 Pegasus 1 42784U 17036V 21168.37158592 .00001982 00000-0 83445-4 0 9998 2 42784 97.2497 217.4561 0011718 171.0398 189.1051 15.24445095221344 NUDATSat 1 42787U 17036Y 21168.64037367 .00002561 00000-0 10108-3 0 9996 2 42787 97.2552 220.1222 0010008 162.6895 197.4687 15.26380352221368 SUCHAI 1 1 42788U 17036Z 21168.37069115 .00002463 00000-0 10065-3 0 9996 2 42788 97.2509 218.4435 0011310 167.7725 192.3790 15.25238186221479 SKCUBE 1 42789U 17036AA 21168.39982406 .00002281 00000-0 94142-4 0 9993 2 42789 97.2502 218.1844 0011198 168.3010 191.8491 15.24973502221381 VZLUSAT 1 1 42790U 17036AB 21168.56886858 .00003212 00000-0 12611-3 0 9993 2 42790 97.2533 220.0414 0010779 162.9014 197.2590 15.26364101221505 VENTA 1 1 42791U 17036AC 21168.57779342 .00002296 00000-0 94922-4 0 9991 2 42791 97.2498 218.3710 0010922 167.9946 192.1555 15.24921314221401 Robusta 1B 1 42792U 17036AD 21168.43429509 .00002434 00000-0 99604-4 0 9990 2 42792 97.2505 218.5970 0010796 167.7448 192.4055 15.25210241221426 D-SAT 1 42794U 17036AF 21168.55968242 .00000174 00000-0 20410-4 0 9995 2 42794 97.4607 188.4466 0124364 225.0793 134.0284 14.91578634217073 TechnoSat 1 42829U 17042E 21168.58849848 .00000339 00000-0 39259-4 0 9998 2 42829 97.4690 38.1198 0015044 141.7528 218.4762 14.91290695213703 QIKCOM-1 1 42983U 98067NF 21168.77534444 .00008599 00000-0 84765-4 0 9997 2 42983 51.6360 257.7429 0003405 355.4830 4.6135 15.66876703207451 AO-91 1 43017U 17073E 21168.67138725 .00000679 00000-0 58269-4 0 9996 2 43017 97.7071 72.6499 0253603 299.8947 57.7289 14.79568732193151 EcAMSat 1 43019U 98067NG 21168.55691984 .00028022 00000-0 15377-3 0 9992 2 43019 51.6360 224.0466 0003956 352.3447 7.7493 15.79543798290206 PICSAT 1 43132U 18004X 21168.45183528 .00002159 00000-0 87067-4 0 9999 2 43132 97.4085 242.9941 0008498 197.7954 162.2988 15.25874486190680 AO-92 1 43137U 18004AC 21168.66084378 .00001758 00000-0 72720-4 0 9994 2 43137 97.4065 242.6898 0008142 200.1059 159.9859 15.25269261190681 TianYi 2 1 43155U 18008A 21168.85717274 .00001365 00000-0 81936-4 0 9990 2 43155 97.4014 233.8126 0016411 332.9005 116.7774 15.12453851188134 Zhou Enlai 1 43156U 18008B 21168.85809822 .00001468 00000-0 88904-4 0 9998 2 43156 97.4058 233.6484 0013671 333.9618 115.5561 15.12060827188075 TianYi 6 1 43158U 18008D 21168.73960139 .00000904 00000-0 57011-4 0 9995 2 43158 97.3994 232.1090 0012965 334.0386 144.3156 15.11484584187989 S-Net D 1 43186U 18014G 21168.28946790 .00000863 00000-0 79777-4 0 9997 2 43186 97.6779 75.8798 0012714 83.9545 276.3125 14.97066680184277 S-Net B 1 43187U 18014H 21168.69041938 .00000882 00000-0 81420-4 0 9992 2 43187 97.6777 76.2400 0012733 82.7173 277.5496 14.97066926184330 S-Net A 1 43188U 18014J 21168.69047086 .00000881 00000-0 81347-4 0 9990 2 43188 97.6781 76.2848 0012716 82.7715 277.4952 14.97065700184330 S-Net C 1 43189U 18014K 21168.55727444 .00000889 00000-0 82014-4 0 9999 2 43189 97.6777 76.1018 0012732 83.0563 277.2106 14.97065621182864 FMN 1 1 43192U 18015A 21168.87520463 .00003550 00000-0 13226-3 0 9997 2 43192 97.4892 304.2425 0013206 237.1128 248.0452 15.28062426187654 Shaonian Xing 1 43199U 18015H 21168.89815623 .00002451 00000-0 93574-4 0 9995 2 43199 97.4675 301.4219 0014339 248.2862 230.8678 15.27543544187716 SurfSat 1 43614U 18070B 21168.54461358 .00005118 00000-0 11925-3 0 9994 2 43614 93.0319 306.0255 0014336 14.6465 345.5203 15.42189477154683 CP-7 DAVE 1 43615U 18070C 21168.36721588 .00004910 00000-0 11551-3 0 9993 2 43615 93.0322 305.9074 0014572 15.1973 344.9717 15.41898066154646 ELFIN-B 1 43616U 18070D 21168.39004421 .00007036 00000-0 14999-3 0 9998 2 43616 93.0276 306.1065 0014103 12.7593 347.4018 15.44819997154763 ELFIN-A 1 43617U 18070E 21168.34983555 .00007701 00000-0 16164-3 0 9993 2 43617 93.0325 306.9359 0013279 10.1414 350.0108 15.45283649154771 STARS-Me Mother 1 43640U 98067PQ 21168.41721094 .00597371 20505-3 52311-3 0 9995 2 43640 51.6164 225.9826 0010511 355.0952 4.9958 16.12360481154314 CubeBel 1 1 43666U 18083E 21168.77822617 .00001624 00000-0 79880-4 0 9992 2 43666 97.4548 197.1434 0014892 161.4878 315.1680 15.19357467146061 Changshagaoxin 1 43669U 18083H 21168.76816679 .00001155 00000-0 59848-4 0 9996 2 43669 97.4455 194.2050 0011194 154.2283 322.4691 15.18131019145935 Ten-Koh 1 43677U 18084G 21168.58962665 .00000108 00000-0 16990-4 0 9991 2 43677 97.9204 291.6269 0016840 38.7670 321.4752 14.90472347143323 PO-101 1 43678U 18084H 21168.85600763 .00000516 00000-0 56930-4 0 9991 2 43678 97.9243 294.1368 0011134 54.9458 305.2806 14.91759061143490 IRVINE 01 1 43693U 18088D 21168.55410208 .00004949 00000-0 19239-3 0 9996 2 43693 85.0346 194.8927 0017612 33.1122 327.1221 15.25624815144457 QO-100 1 43700U 18090A 21168.27718912 .00000152 00000-0 00000-0 0 9995 2 43700 0.0161 324.7145 0001218 143.1440 283.5199 1.00274391 9361 Reaktor Hello World 1 43743U 18096AA 21168.44931631 .00002094 00000-0 77287-4 0 9994 2 43743 97.3854 245.9607 0015412 277.0135 82.9352 15.28812701142135 MinXSS-2 1 43758U 18099A 21168.77055851 .00000111 00000-0 14969-4 0 9996 2 43758 97.6667 239.9567 0016690 51.5161 308.7554 14.96066505138569 AO-95 1 43770U 18099N 21168.44996257 .00000212 00000-0 24370-4 0 9997 2 43770 97.6646 238.6372 0015742 61.1399 299.1400 14.95328619138454 RANGE-B 1 43772U 18099Q 21168.14380626 .00001037 00000-0 98251-4 0 9998 2 43772 97.6733 239.3319 0015224 51.0198 309.2377 14.95631661138418 RANGE-A 1 43773U 18099R 21168.18772366 .00000285 00000-0 31023-4 0 9997 2 43773 97.6580 237.7045 0014556 50.4379 309.8125 14.95218620138400 MOVE-II 1 43780U 18099Y 21168.14389488 .00001290 00000-0 12010-3 0 9991 2 43780 97.6667 238.8711 0014753 60.2436 300.0251 14.95938062138422 SNUSat 2 1 43782U 18099AA 21168.41576537 .00000788 00000-0 76066-4 0 9999 2 43782 97.6649 238.9448 0013903 49.4441 310.7988 14.95572440138466 SnugLite 1 43784U 18099AC 21168.75866847 .00000424 00000-0 43091-4 0 9993 2 43784 97.6612 239.0068 0016345 54.4471 305.8271 14.95699691138536 ITASat 1 1 43786U 18099AE 21168.77059198 -.00000017 00000-0 35967-5 0 9993 2 43786 97.6669 239.6290 0016364 53.4334 306.8391 14.95624800138535 EAGLET 1 1 43790U 18099AJ 21168.13613722 .00000638 00000-0 61880-4 0 9997 2 43790 97.6655 239.4198 0014657 59.9339 300.3334 14.95970233138168 ESEO 1 43792U 18099AL 21168.18784059 -.00000010 00000-0 41811-5 0 9994 2 43792 97.6620 239.0635 0014435 56.4774 303.7824 14.95741624138221 CSIM 1 43793U 18099AM 21168.14609814 .00001355 00000-0 12382-3 0 9997 2 43793 97.6654 239.4084 0014183 54.8787 305.3762 14.96599830138227 Astrocast 0.1 1 43798U 18099AS 21168.48721503 .00000828 00000-0 78429-4 0 9998 2 43798 97.6665 239.9593 0013361 40.9327 319.2895 14.96201199138529 JO-97 1 43803U 18099AX 21168.13238340 .00000741 00000-0 71232-4 0 9998 2 43803 97.6627 238.7561 0016222 55.9578 304.3181 14.95868984138443 Suomi 100 1 43804U 18099AY 21168.13787396 .00000873 00000-0 83100-4 0 9992 2 43804 97.6625 238.7282 0016360 56.1701 304.1075 14.95840719138453 Al Farabi 2 1 43805U 18099AZ 21168.54029332 .00000747 00000-0 71476-4 0 9990 2 43805 97.6626 239.3435 0016264 55.2331 305.0414 14.96059401138520 CHOMPTT 1 43855U 18104G 21168.51946156 .00001813 00000-0 72856-4 0 9999 2 43855 85.0368 293.4584 0018482 140.5337 219.7256 15.23994662139101 ISAT 1 43879U 18111D 21168.79669083 -.00000108 00000-0 -44415-5 0 9993 2 43879 97.6859 76.0500 0014256 98.4194 261.8651 14.96633865133106 UWE-4 1 43880U 18111E 21168.24989877 -.00000011 00000-0 40458-5 0 9996 2 43880 97.6876 75.9870 0013667 102.0529 258.2225 14.96877032135053 Sparrow 1 43881U 18111F 21168.55487784 .00001028 00000-0 94396-4 0 9998 2 43881 97.6881 76.4180 0014133 100.0438 260.2380 14.96930619135108 Lume 1 1 43908U 18111AJ 21168.52573438 .00001761 00000-0 70409-4 0 9990 2 43908 97.2335 63.2347 0018812 293.6483 66.2781 15.26248742137681 FO-98 1 43933U 19003B 21168.56003648 .00013233 00000-0 49991-3 0 9992 2 43933 97.1825 209.9580 0016866 39.7968 320.4505 15.26979456134122 FO-99 1 43937U 19003F 21168.58437211 .00002330 00000-0 93317-4 0 9993 2 43937 97.1757 211.7612 0023521 16.7887 343.4125 15.25766770134280 MYSat 1 1 44045U 18092F 21168.01655505 .00005101 00000-0 13574-3 0 9992 2 44045 51.6383 68.3129 0009939 200.4567 159.6021 15.39959488131390 AstroCast 0.2 1 44083U 19018F 21168.70273611 .00001656 00000-0 74180-4 0 9995 2 44083 97.3725 229.7785 0012025 338.9722 21.1019 15.22593583122932 AISTechSat 3 1 44103U 19018AB 21168.73907735 .00001417 00000-0 61161-4 0 9992 2 44103 97.3583 230.2030 0012722 350.7669 127.8970 15.24084258123053 AISat 1 1 44104U 19018AC 21168.66864632 .00001259 00000-0 41321-4 0 9993 2 44104 97.4256 245.9346 0056440 356.3828 3.6998 15.32090684123701 Raavana-1 1 44329U 98067QE 21168.60580095 .00057570 00000-0 33772-3 0 9992 2 44329 51.6359 284.2977 0005416 301.3162 58.7308 15.77695951114185 Uguisu 1 44330U 98067QF 21168.60378716 .00055226 00000-0 33267-3 0 9994 2 44330 51.6311 284.9375 0005467 298.3711 61.6737 15.77115352114153 NepaliSat-1 1 44331U 98067QG 21168.60166554 .00057277 00000-0 33752-3 0 9997 2 44331 51.6333 284.1739 0005334 300.1072 59.9399 15.77597229114172 Prox-1 1 44339U 19036A 21168.57347890 .00000972 00000-0 17854-3 0 9999 2 44339 24.0014 333.4544 0010654 184.4870 175.5526 14.53596153105199 Oculus-ASR 1 44348U 19036K 21168.21010771 .00011869 00000-0 15848-3 0 9993 2 44348 28.5141 135.4881 0330403 264.3270 91.9564 15.11981484108873 Armadillo 1 44352U 19036P 21168.25220074 .00021660 00000-0 27293-3 0 9998 2 44352 28.5299 113.9749 0300249 297.5713 59.4687 15.19446990109042 NO-104 1 44354U 19036R 21168.56876937 .00013622 00000-0 17822-3 0 9995 2 44354 28.5299 126.2769 0325373 277.2712 79.1012 15.13505209108988 NO-103 1 44355U 19036S 21168.14470306 .00044625 00000-0 48980-3 0 9996 2 44355 28.5262 84.1216 0263475 345.9970 13.3433 15.29588136109380 CP9 1 44360U 19036X 21168.28721104 .00109163 -32902-5 71416-3 0 9993 2 44360 28.5035 17.7316 0183630 95.4211 266.7368 15.54640334109924 Move-IIb 1 44398U 19038N 21168.57461383 .00001829 00000-0 10480-3 0 9990 2 44398 97.5831 132.5758 0023510 312.9391 46.9858 15.13669939107788 SONATE 1 44400U 19038Q 21168.57939786 .00000644 00000-0 40559-4 0 9996 2 44400 97.5903 132.4571 0023985 312.8343 47.0863 15.12554227107753 BeeSat 9 1 44412U 19038AC 21168.47014228 .00001359 00000-0 79789-4 0 9994 2 44412 97.5881 132.6231 0021035 317.7789 42.1821 15.13291268107459 JAISAT-1 1 44419U 19038F 21168.43989845 .00001405 00000-0 81298-4 0 9993 2 44419 97.5884 133.1404 0019861 316.2294 43.7362 15.13775544107794 LightSail-2 1 44420U 19036AC 21168.58289985 .00005863 00000-0 11480-2 0 9993 2 44420 24.0050 312.7222 0013247 231.6974 128.2327 14.60131376103523 Taurus 1 1 44530U 19059C 21168.72645379 .00000655 00000-0 19608-3 0 9994 2 44530 98.5522 259.0714 0015204 137.7899 222.4466 14.46074355 93123 Duchifat 3 1 44854U 19089C 21168.85986467 .00000565 00000-0 51528-4 0 9994 2 44854 36.9642 98.2295 0007034 147.6923 212.4268 14.99505127 83164 OPS-SAT 1 44878U 19092F 21168.45397407 .00000954 00000-0 52289-4 0 9997 2 44878 97.4750 351.9480 0014205 163.5770 196.5926 15.16531258 82832 TO-108 1 44881U 19093C 21168.80499091 .00000099 00000-0 19431-4 0 9995 2 44881 97.9238 247.6286 0013742 294.9056 65.0727 14.81456204 80787 FloripaSat 1 1 44885U 19093G 21168.75826936 .00000374 00000-0 53400-4 0 9995 2 44885 97.9259 248.1662 0013397 303.6249 56.3683 14.82304192 80813 RS-44 1 44909U 19096E 21168.54952069 .00000030 00000-0 68734-4 0 9994 2 44909 82.5208 112.7492 0218576 92.8296 269.7842 12.79710222 68830 SwampSat-2 1 45115U 19071E 21168.58915259 .00050875 00000-0 77488-3 0 9998 2 45115 51.6358 15.2202 0005279 293.2372 66.8062 15.53972946 77462 HO-107 1 45119U 19071J 21168.54693797 .00002771 00000-0 89166-4 0 9997 2 45119 51.6429 36.4363 0010597 291.7627 68.2228 15.35806820 77189 Phoenix 1 45258U 98067RB 21168.49488429 .00009762 00000-0 14088-3 0 9998 2 45258 51.6404 328.7079 0005193 251.3849 108.6579 15.56672044 75213 AztechSat-1 1 45261U 98067RE 21168.47872527 .00032190 00000-0 31888-3 0 9994 2 45261 51.6367 318.0787 0006008 273.1324 86.8984 15.65502178 75384 QARMAN 1 45263U 98067RG 21168.58839424 .00021878 00000-0 25362-3 0 9998 2 45263 51.6392 322.5881 0005779 267.1268 92.9064 15.61717650 75367 Quetzal 1 1 45598U 98067RL 21168.69653404 .00019298 00000-0 24176-3 0 9998 2 45598 51.6404 326.3326 0001331 350.2773 9.8194 15.59786018 64598 BY70-2 1 45857U 20042B 21168.84831070 .00001384 00000-0 20341-3 0 9995 2 45857 97.9838 244.5908 0010488 203.4180 156.6550 14.77035765 51601 UPMSat 2 1 46276U 20061E 21168.15396195 .00000702 00000-0 39421-4 0 9993 2 46276 97.4322 241.9382 0002225 52.0991 308.0443 15.16473928 43498 AmicalSat 1 46287U 20061R 21168.44160234 .00000792 00000-0 51879-4 0 9990 2 46287 97.4875 241.7083 0004415 95.5437 264.6296 15.10482887 43344 SALSAT 1 46495U 20068K 21168.59414520 -.00000389 00000-0 -23954-4 0 9991 2 46495 97.6950 106.0890 0018812 71.7433 288.5837 15.03454919 39357 BY70-3 1 46839U 20079N 21168.84226226 .00003453 00000-0 10832-3 0 9990 2 46839 97.2395 242.6897 0006522 191.7005 276.1362 15.33692187 34260 SPOC 1 46921U 98067RR 21168.45871362 .00010294 00000-0 16089-3 0 9999 2 46921 51.6429 336.0086 0002174 88.5104 271.6136 15.54411114 34861 Bobcat-1 1 46922U 98067RS 21168.53744417 .00015039 00000-0 21780-3 0 9995 2 46922 51.6433 334.3035 0001759 99.5775 260.5415 15.56098104 34854 Neutron-1 1 46923U 98067RT 21168.53855442 .00010730 00000-0 16815-3 0 9993 2 46923 51.6427 335.7892 0002184 101.8882 258.2354 15.54285167 34900 CAPE 3 1 47309U 21002A 21168.57881065 .00001017 00000-0 57272-4 0 9992 2 47309 60.6839 291.4906 0040581 48.0275 312.4257 15.20776270 22906 AO-109 1 47311U 21002C 21168.55518432 .00001388 00000-0 72013-4 0 9999 2 47311 60.6849 290.8143 0036856 48.2531 312.1696 15.21658557 22882 MiTEE 1 1 47314U 21002F 21168.56044670 .00002411 00000-0 11144-3 0 9996 2 47314 60.6846 289.6710 0035326 39.5652 320.8004 15.23124957 22924 ExoCube 2 1 47319U 21002L 21168.72283368 .00000972 00000-0 54575-4 0 9994 2 47319 60.6862 290.4860 0038549 50.1974 310.2495 15.21298456 22874 UVSQ-SAT 1 47438U 21006AB 21168.44776295 .00001188 00000-0 70571-4 0 9999 2 47438 97.4871 229.6717 0014465 97.7691 262.5183 15.13143901 22051 YUSAT 1 1 47439U 21006AC 21168.58229070 .00001372 00000-0 80940-4 0 9995 2 47439 97.4873 229.8018 0014333 97.8421 262.4438 15.13136940 22075 SOMP 2b 1 47445U 21006AJ 21168.39598429 .00001060 00000-0 63614-4 0 9991 2 47445 97.4844 229.5332 0014062 101.3727 258.9084 15.12984136 22046 IDEASSat 1 47458U 21006AX 21168.67346013 .00001043 00000-0 62924-4 0 9990 2 47458 97.4935 229.9520 0013151 98.5751 261.6971 15.12848007 22082 RSP-01 1 47925U 98067SB 21168.75469465 .00010731 00000-0 18500-3 0 9990 2 47925 51.6436 338.7180 0002007 51.4775 308.6395 15.51607034 14823 TAUSAT-1 1 47926U 98067SC 21168.53478575 .00013355 00000-0 22329-3 0 9998 2 47926 51.6431 339.4991 0002981 46.1721 313.9515 15.52232515 14787 Tsuru 1 47927U 98067SD 21168.50150077 .00009541 00000-0 16635-3 0 9995 2 47927 51.6439 340.0269 0002118 47.7852 312.3317 15.51439697 14788 STARS-EC 1 47928U 98067SE 21168.50130736 .00013819 00000-0 23530-3 0 9991 2 47928 51.6430 340.0199 0005833 114.2354 245.9246 15.51675375 14761 Maya-2 1 47929U 98067SF 21168.75719414 .00009765 00000-0 16985-3 0 9996 2 47929 51.6436 338.7344 0002164 44.7902 315.3262 15.51475577 14788 OPUSAT-II 1 47930U 98067SG 21168.48610044 .00014921 00000-0 25008-3 0 9993 2 47930 51.6433 339.9251 0001811 38.2895 321.8223 15.52058147 14784 GuaraniSat-1 1 47931U 98067SH 21168.49872895 .00009728 00000-0 16919-3 0 9999 2 47931 51.6438 340.0094 0002152 43.3543 316.7616 15.51484146 14784 CubeSX-Sirius-HSE 1 47951U 21022V 21168.85492491 .00000721 00000-0 53998-4 0 9991 2 47951 97.5599 71.0041 0021006 314.2081 110.2769 15.05670913 13112 CubeSX-HSE 1 47952U 21022W 21168.85697883 .00000676 00000-0 50842-4 0 9998 2 47952 97.5601 71.0103 0020778 313.9239 133.7677 15.05709533 13111 KSU-Cubesat 1 47954U 21022Y 21168.43774120 .00000272 00000-0 22978-4 0 9995 2 47954 97.5596 70.6125 0020493 314.7532 45.2027 15.05785986 12777 GRBAlpha 1 47959U 21022AD 21168.85760321 .00000681 00000-0 51183-4 0 9998 2 47959 97.5603 71.0167 0020707 314.5543 135.4520 15.05707327 11930 Orbicraft-Zorkiy 1 47960U 21022AE 21168.85385759 .00000691 00000-0 51779-4 0 9990 2 47960 97.5613 71.0347 0020373 314.4457 135.6709 15.05774247 12628 STECCO 1 47962U 21022AG 21168.79235331 .00001293 00000-0 90805-4 0 9997 2 47962 97.5574 71.0682 0015627 311.9538 118.8805 15.06808282 11926 DO-111 1 47963U 21022AH 21168.69362511 .00002273 00000-0 15443-3 0 9991 2 47963 97.5580 71.0229 0018431 308.3004 51.6565 15.07255076 11931 MO-110 1 47964U 21022AJ 21168.29969698 .00000841 00000-0 60046-4 0 9996 2 47964 97.5583 70.6238 0018628 309.5474 50.4107 15.07069751 11855 /EX
